Regional Weather Roundup
Issued by NWS Sterling, VA

Home | Current Version | Previous Version | Graphics & Text | Print | Product List | Glossary On
Versions: 1 2 3 4 5 6 7 8 9 10 11 12 13 14 15 16 17 18 19 20 21 22 23 24 25 26 27 28 29 30 31 32 33 34 35 36 37 38 39 40 41 42 43 44 45 46 47 48 49 50
000
ASUS41 KLWX 281310
RWRLWX

REGIONAL WEATHER ROUNDUP
NATIONAL WEATHER SERVICE BALTIMORE MD/WASHINGTON DC
900 AM EDT SAT MAR 28 2015

Note: "FAIR" indicates few or no clouds below 12,000 feet
with no significant weather and/or obstructions to visibility.
 TC=TEMPERATURE CELSIUS

 * =Non NWS site. Station does not report precipitation (e.g. rain,
    snow, etc.), thunder, or fog.

DCZ001-MDZ009-015-VAZ040>042-051-053>054-281400-
WASHINGTON METRO

CITY           SKY/WX    TMP DP  RH WIND       PRES   REMARKS
WASHINGTON NAT MOSUNNY   34  10  37 W17G24    30.00R WCI  23
DULLES         MOSUNNY   28   8  43 NW21G29   30.01R WCI  15
ANDREWS AFB    SUNNY     32  10  39 NW22G28   29.96R WCI  19
FT BELVOIR     SUNNY     32   8  36 NW21      30.01R WCI  19
QUANTICO       SUNNY     33   7  33 NW20G26   30.03R WCI  21
COLLEGE PARK*  SUNNY     32  10  40 NW12G17   29.98S WCI  23
LEESBURG*      SUNNY     30  12  47 NW13G28   30.01R WCI  20
MANASSAS*      SUNNY     30  12  47 NW16G26   30.02  WCI  19
GAITHERSBURG*  SUNNY     28   9  43 NW10G25   30.00S WCI  19

$$

MDZ006>007-011-014-281400-
BALTIMORE METRO

CITY           SKY/WX    TMP DP  RH WIND       PRES   REMARKS
BWI AIRPORT    PTSUNNY   30  13  49 W16G25    29.95R WCI  19
MD SCIENCE CTR   N/A     31  16  54 MISG      29.95R
MARTIN STATE   FLURRIES  34  21  60 W18G26    29.96R WCI  23
ANNAPOLIS      CLOUDY    32  16  51 NW16G24   29.95R WCI  21

$$

MDZ012-015-019>023-281400-
MARYLAND EASTERN SHORE

CITY           SKY/WX    TMP DP  RH WIND       PRES   REMARKS
OCEAN CITY     PTSUNNY   35  24  64 NW15G24   29.87R WCI  25
SALISBURY      MOSUNNY   37  24  59 NW15G26   29.89R WCI  28
BAY BRIDGE AP*   N/A     32  19  59 W21G28    29.94R WCI  20
CAMBRIDGE*     MOSUNNY   36  21  55 NW13G24   29.92R WCI  27
EASTON*        PTSUNNY   36  21  55 MISG      29.96R

$$

MDZ017>025-281400-
SOUTHERN MARYLAND

CITY           SKY/WX    TMP DP  RH WIND       PRES   REMARKS
PATUXENT RIVER PTSUNNY   34  18  52 NW17      29.95R WCI  23
ST INIGOES     CLOUDY    35  15  44 NW15G30   29.94R WCI  25
LEONARDTOWN*   MOSUNNY   32  18  55 W10G22    29.97R WCI  24

$$

MDZ003>005-281400-
NORTH CENTRAL MARYLAND

CITY           SKY/WX    TMP DP  RH WIND       PRES   REMARKS
FREDERICK*     MOSUNNY   28   1  31 NW12G17   30.02R WCI  18
HAGERSTOWN APT SUNNY     26   8  46 W17       29.99R WCI  13
WESTMINSTER*   FLURRIES  27  12  54 NW13G20   29.93R WCI  16

$$

MDZ501>502-281400-
WESTERN MARYLAND

CITY           SKY/WX    TMP DP  RH WIND       PRES   REMARKS
OAKLAND*       CLOUDY     9   9 100 NW14G20   29.89R WCI  -8
CUMBERLAND*    PTSUNNY   23   5  46 NW10G22   30.10R WCI  12

$$

VAZ025>031-281400-
SHENANDOAH VALLEY

CITY           SKY/WX    TMP DP  RH WIND       PRES   REMARKS
WINCHESTER*    MOSUNNY   28   3  34 NW12G24   30.01R WCI  18
FRONT ROYAL*   FAIR      28   7  40 NW8G18    30.01R WCI  20
LURAY*         FAIR      28   9  43 NW8       30.01R WCI  20
NEW MARKET*    FAIR      26   6  44 NW3       30.01R
STAUNTON*      CLOUDY    27  13  54 NW8       30.00R WCI  19
WAYNESBORO*    CLOUDY    25  17  72 NW13G20   29.97R WCI  13

$$

WVZ021-048>050-054>055-281400-
EASTERN WEST VIRGINIA PANHANDLE

CITY           SKY/WX    TMP DP  RH WIND       PRES   REMARKS
MARTINSBURG    SUNNY     26   3  37 NW18G28   30.02R WCI  13
PETERSBURG*    MOSUNNY   23   1  38 NW14G20   30.06R WCI  11

$$

VAZ036>039-050-281400-
CENTRAL FOOTHILLS

CITY           SKY/WX    TMP DP  RH WIND       PRES   REMARKS
CHARLOTTESVILL MOSUNNY   29  11  47 N12G18    30.00R WCI  19
CULPEPER*      SUNNY     30  10  43 NW10G17   30.03R WCI  21
ORANGE*        CLOUDY    32  16  51 NW10      30.02R WCI  24
GORDONSVILLE*  CLOUDY    30  11  45 N3        30.00R
WARRENTON*     FAIR      32  16  52 NW15G22   30.02R WCI  22

$$

VAZ055>057-281400-
NORTH AND CENTRAL PIEDMONT

CITY           SKY/WX    TMP DP  RH WIND       PRES   REMARKS
FREDERICKSBRG* CLOUDY    32  13  44 NW14G23   30.01R WCI  22
STAFFORD*      MOSUNNY   30   9  41 NW18G24   30.05R WCI  18

$$

NCZ024-NYZ072-PAZ021-071-VAZ022-071-281400-
OTHER REGIONAL OBSERVATIONS

CITY           SKY/WX    TMP DP  RH WIND       PRES   REMARKS
NEW YORK CITY  CLOUDY    33  17  51 VRB7      29.83R
PHILADELPHIA   PTSUNNY   36  18  48 N14       29.88R WCI  27
PITTSBURGH     PTSUNNY   17   7  64 NW17      30.09R WCI   1
ROANOKE        MOSUNNY   28   4  35 NW15G21   30.05R WCI  16
RICHMOND       MOSUNNY   36  20  52 N15G26    29.98R WCI  27
RALEIGH        MOSUNNY   38  22  52 N8        30.01R

$$

ANZ530>537-281400-
MARINE OBSERVATIONS

STATION/POSITION TIME  TEMP    WIND        PRES
                       AIR SEA DIR/SP/G
                 (UTC) (F)     (DEG/KT/KT) (MB)
THOMAS PT LIGHT  1300                        N/A
BALT KEY BRIDGE  1200   32     290/ 19/ 21 1013.3R
COVE POINT       1200   33     320/ 14/ 19 1012.9R
LEWISETTA        1200   36 45              1013.8R
SOLOMONS ISLAND  1200      42                N/A
PINEY POINT      1200          330/ 25/ 27   N/A

$$



USA.gov is the U.S. government's official web portal to all federal, state and local government web resources and services.